Precipitable_Water
0.25 0.25 0.27 0.25 0.25 0.28 0.27 0.29 0.27 0.29 0.32 0.40 0.47 0.49 0.53 0.54 0.54 0.54 0.55 0.57 0.58 0.55 0.54 0.50 0.46 0.45 0.44 0.44 0.47 0.52 0.50 0.52 0.46 0.45 0.43 0.38 0.37 0.34 0.33 0.29 0.27 0.27 0.27 0.26
0.20 0.27 0.26 0.22 0.26 0.28 0.30 0.30 0.31 0.35 0.34 0.47 0.52 0.54 0.53 0.53 0.54 0.55 0.55 0.56 0.53 0.52 0.47 0.45 0.43 0.43 0.41 0.40 0.44 0.51 0.48 0.52 0.49 0.46 0.47 0.45 0.41 0.33 0.31 0.27 0.27 0.27 0.27 0.25
0.17 0.23 0.23 0.26 0.29 0.30 0.32 0.36 0.35 0.32 0.39 0.49 0.50 0.52 0.54 0.53 0.54 0.55 0.55 0.51 0.47 0.46 0.46 0.43 0.38 0.33 0.33 0.36 0.40 0.42 0.40 0.44 0.45 0.49 0.48 0.44 0.38 0.31 0.30 0.28 0.28 0.27 0.26 0.26
0.19 0.23 0.13 0.29 0.35 0.37 0.35 0.37 0.40 0.41 0.48 0.54 0.55 0.56 0.56 0.59 0.57 0.56 0.50 0.46 0.46 0.44 0.39 0.37 0.34 0.34 0.32 0.30 0.29 0.30 0.35 0.42 0.41 0.48 0.42 0.40 0.37 0.32 0.28 0.29 0.28 0.25 0.26 0.28
0.19 0.18 0.21 0.28 0.36 0.35 0.33 0.33 0.43 0.47 0.52 0.56 0.57 0.55 0.53 0.60 0.59 0.50 0.47 0.46 0.39 0.35 0.34 0.33 0.33 0.32 0.30 0.27 0.27 0.29 0.28 0.37 0.39 0.46 0.40 0.39 0.36 0.32 0.28 0.28 0.26 0.27 0.28 0.29
0.25 0.18 0.14 0.28 0.42 0.47 0.45 0.30 0.56 0.56 0.55 0.54 0.52 0.40 0.46 0.56 0.50 0.47 0.42 0.37 0.32 0.32 0.32 0.30 0.29 0.29 0.26 0.25 0.25 0.25 0.34 0.36 0.39 0.45 0.43 0.39 0.38 0.30 0.29 0.29 0.27 0.29 0.28 0.28
0.24 0.21 0.25 0.36 0.44 0.48 0.29 0.37 0.57 0.61 0.57 0.54 0.49 0.52 0.52 0.52 0.46 0.40 0.36 0.32 0.31 0.28 0.27 0.27 0.28 0.26 0.25 0.25 0.24 0.31 0.36 0.36 0.41 0.43 0.45 0.40 0.32 0.29 0.29 0.26 0.26 0.27 0.26 0.26
0.26 0.22 0.19 0.45 0.46 0.37 0.49 0.59 0.62 0.61 0.60 0.56 0.56 0.55 0.47 0.45 0.38 0.34 0.31 0.28 0.26 0.24 0.24 0.25 0.25 0.26 0.27 0.26 0.28 0.32 0.34 0.33 0.35 0.37 0.37 0.34 0.31 0.30 0.26 0.24 0.25 0.24 0.24 0.23
0.31 0.28 0.44 0.51 0.52 0.60 0.63 0.60 0.63 0.64 0.61 0.55 0.53 0.45 0.42 0.36 0.33 0.32 0.28 0.25 0.25 0.24 0.24 0.25 0.28 0.29 0.29 0.30 0.31 0.32 0.31 0.34 0.35 0.36 0.35 0.33 0.28 0.23 0.23 0.24 0.24 0.23 0.22 0.20
0.35 0.36 0.42 0.50 0.60 0.66 0.67 0.66 0.66 0.64 0.58 0.58 0.46 0.43 0.37 0.34 0.31 0.27 0.25 0.24 0.25 0.24 0.24 0.25 0.27 0.30 0.31 0.30 0.33 0.32 0.32 0.33 0.34 0.31 0.30 0.25 0.24 0.24 0.23 0.23 0.23 0.22 0.21 0.19
0.34 0.40 0.49 0.57 0.62 0.65 0.66 0.68 0.67 0.65 0.56 0.48 0.44 0.38 0.34 0.28 0.26 0.26 0.25 0.26 0.25 0.25 0.25 0.25 0.28 0.30 0.31 0.31 0.33 0.32 0.32 0.32 0.29 0.30 0.25 0.23 0.23 0.23 0.24 0.25 0.24 0.22 0.21 0.20
0.31 0.49 0.52 0.57 0.68 0.70 0.64 0.65 0.64 0.53 0.48 0.45 0.41 0.31 0.26 0.25 0.25 0.25 0.25 0.24 0.24 0.25 0.26 0.27 0.29 0.29 0.31 0.32 0.34 0.33 0.30 0.29 0.26 0.22 0.22 0.24 0.23 0.23 0.26 0.25 0.26 0.25 0.24 0.22
0.45 0.58 0.63 0.69 0.69 0.68 0.63 0.60 0.54 0.49 0.45 0.35 0.29 0.26 0.25 0.23 0.22 0.23 0.23 0.24 0.25 0.26 0.28 0.30 0.30 0.30 0.33 0.35 0.34 0.33 0.30 0.25 0.22 0.22 0.25 0.24 0.23 0.22 0.21 0.24 0.26 0.26 0.25 0.24
0.62 0.65 0.60 0.62 0.58 0.60 0.54 0.52 0.49 0.42 0.33 0.30 0.26 0.24 0.22 0.23 0.23 0.23 0.23 0.25 0.26 0.27 0.28 0.29 0.31 0.32 0.36 0.36 0.34 0.32 0.29 0.23 0.23 0.24 0.24 0.23 0.22 0.22 0.23 0.22 0.21 0.23 0.25 0.24
0.64 0.67 0.64 0.64 0.60 0.56 0.51 0.44 0.35 0.29 0.27 0.25 0.24 0.22 0.24 0.22 0.21 0.22 0.25 0.26 0.27 0.27 0.27 0.29 0.32 0.34 0.37 0.36 0.33 0.30 0.27 0.24 0.23 0.22 0.24 0.23 0.23 0.23 0.23 0.23 0.22 0.22 0.23 0.23
0.63 0.64 0.61 0.57 0.49 0.44 0.36 0.30 0.27 0.26 0.25 0.22 0.22 0.23 0.24 0.23 0.23 0.23 0.24 0.26 0.24 0.21 0.27 0.31 0.33 0.36 0.37 0.35 0.32 0.29 0.26 0.25 0.23 0.22 0.23 0.23 0.23 0.23 0.22 0.23 0.22 0.22 0.22 0.22
0.58 0.50 0.50 0.46 0.40 0.32 0.28 0.28 0.28 0.26 0.23 0.22 0.22 0.23 0.22 0.22 0.22 0.22 0.23 0.25 0.25 0.27 0.31 0.34 0.35 0.37 0.37 0.35 0.32 0.28 0.25 0.25 0.23 0.22 0.23 0.24 0.23 0.23 0.23 0.23 0.22 0.22 0.22 0.23
0.59 0.54 0.48 0.39 0.31 0.29 0.28 0.29 0.27 0.25 0.23 0.23 0.23 0.23 0.22 0.22 0.21 0.21 0.23 0.25 0.26 0.28 0.33 0.37 0.38 0.37 0.36 0.35 0.32 0.27 0.24 0.22 0.23 0.23 0.24 0.23 0.24 0.23 0.23 0.23 0.23 0.23 0.22 0.23
0.47 0.42 0.38 0.32 0.30 0.29 0.28 0.26 0.24 0.24 0.23 0.23 0.23 0.22 0.23 0.23 0.23 0.24 0.25 0.25 0.26 0.26 0.31 0.38 0.40 0.37 0.35 0.34 0.28 0.24 0.23 0.22 0.22 0.23 0.24 0.24 0.23 0.23 0.24 0.23 0.23 0.23 0.22 0.22
0.40 0.36 0.32 0.28 0.27 0.25 0.23 0.22 0.24 0.25 0.25 0.26 0.25 0.24 0.22 0.23 0.25 0.24 0.24 0.24 0.27 0.31 0.36 0.38 0.39 0.37 0.35 0.33 0.27 0.24 0.23 0.23 0.22 0.22 0.23 0.23 0.23 0.23 0.24 0.23 0.23 0.23 0.22 0.22
0.33 0.31 0.28 0.28 0.25 0.22 0.22 0.24 0.25 0.24 0.25 0.27 0.26 0.24 0.24 0.25 0.25 0.25 0.25 0.24 0.28 0.34 0.39 0.39 0.39 0.37 0.36 0.33 0.29 0.26 0.25 0.24 0.23 0.22 0.23 0.23 0.23 0.23 0.23 0.23 0.23 0.23 0.23 0.22
0.32 0.28 0.26 0.22 0.20 0.21 0.25 0.27 0.27 0.27 0.26 0.26 0.27 0.28 0.26 0.25 0.26 0.27 0.29 0.29 0.32 0.36 0.37 0.37 0.38 0.38 0.37 0.34 0.30 0.28 0.27 0.26 0.23 0.23 0.23 0.23 0.23 0.23 0.23 0.23 0.23 0.23 0.23 0.23
0.29 0.25 0.22 0.22 0.23 0.24 0.26 0.26 0.26 0.27 0.26 0.28 0.28 0.28 0.27 0.29 0.30 0.28 0.24 0.32 0.34 0.36 0.36 0.37 0.38 0.38 0.37 0.35 0.32 0.29 0.28 0.27 0.23 0.21 0.22 0.23 0.23 0.23 0.22 0.22 0.23 0.23 0.22 0.21
0.25 0.24 0.24 0.24 0.25 0.24 0.22 0.25 0.29 0.30 0.30 0.30 0.31 0.32 0.32 0.30 0.31 0.34 0.34 0.34 0.34 0.35 0.36 0.37 0.39 0.39 0.38 0.36 0.34 0.31 0.31 0.29 0.26 0.24 0.24 0.24 0.24 0.25 0.25 0.24 0.24 0.24 0.23 0.22
0.23 0.23 0.23 0.23 0.23 0.24 0.26 0.30 0.30 0.30 0.31 0.33 0.33 0.34 0.35 0.37 0.33 0.32 0.33 0.33 0.34 0.35 0.35 0.37 0.38 0.39 0.38 0.37 0.35 0.34 0.33 0.33 0.29 0.25 0.24 0.24 0.24 0.25 0.25 0.26 0.26 0.25 0.24 0.24
0.22 0.23 0.24 0.25 0.25 0.26 0.28 0.29 0.28 0.31 0.33 0.31 0.32 0.34 0.35 0.36 0.36 0.35 0.35 0.34 0.34 0.35 0.35 0.36 0.37 0.38 0.38 0.37 0.36 0.35 0.35 0.35 0.33 0.28 0.25 0.24 0.25 0.25 0.25 0.26 0.26 0.26 0.26 0.25
0.24 0.25 0.26 0.27 0.28 0.29 0.29 0.31 0.31 0.32 0.34 0.33 0.32 0.34 0.34 0.34 0.33 0.33 0.33 0.33 0.33 0.34 0.35 0.36 0.38 0.37 0.37 0.37 0.37 0.36 0.36 0.35 0.33 0.29 0.26 0.25 0.25 0.26 0.26 0.27 0.27 0.27 0.27 0.27
Wind_Speed
11 14 14 17 19 18 18 18 16 17 19 18 15 15 14 17 22 24 27 29 33 36 39 41 42 43 45 47 48 49 50 49 51 52 49 47 47 49 47 47 45 42 39 37
10 11 18 21 21 19 19 18 18 18 18 14 14 16 19 22 25 26 30 33 36 39 41 42 44 45 47 49 50 48 51 49 52 53 44 49 46 47 46 44 41 38 35 34
11 17 19 13 15 17 17 17 17 16 18 14 16 20 24 25 27 30 33 37 39 40 42 43 45 48 49 50 50 53 52 50 50 49 46 47 45 44 43 40 37 35 33 32
13 16 13 15 23 20 19 18 17 18 14 14 19 23 26 26 29 32 36 38 40 41 43 44 49 49 50 52 53 53 52 51 52 46 46 40 40 39 38 34 34 32 31 31
13 15 20 19 16 17 19 21 20 16 17 21 25 27 26 27 32 35 37 39 41 43 45 48 48 50 53 55 53 52 54 50 50 43 42 38 36 36 33 33 32 29 31 33
14 16 17 17 19 20 22 20 16 17 21 24 29 27 28 33 35 36 38 41 43 45 47 48 50 52 54 53 53 52 51 50 46 41 34 32 33 31 30 31 28 30 32 34
16 18 21 21 21 21 19 18 22 22 26 28 27 30 33 34 36 38 40 43 45 47 48 49 51 53 52 52 51 50 49 48 40 34 27 32 29 27 28 27 29 30 31 34
17 18 20 21 22 21 22 26 25 25 26 29 30 32 34 36 38 40 42 45 47 48 49 50 52 51 51 51 51 49 46 41 35 30 26 23 24 24 25 28 28 29 31 33
19 20 21 26 26 27 27 25 26 27 29 31 31 33 35 37 39 42 45 46 49 48 51 51 50 50 49 50 49 45 39 33 28 24 22 22 21 23 25 26 27 29 31 32
23 26 28 28 27 26 26 26 27 29 30 30 32 34 37 39 41 44 45 48 48 51 50 49 49 49 49 47 44 38 33 28 25 23 21 19 20 23 24 25 27 28 29 31
28 30 31 27 25 25 26 29 29 29 29 31 33 36 39 41 44 46 47 47 50 49 49 50 49 48 47 43 37 32 28 25 23 21 19 20 22 22 24 25 25 27 28 29
29 30 28 27 26 29 30 29 28 28 30 32 36 39 41 43 45 46 47 49 49 49 49 49 49 48 43 37 32 28 24 23 22 21 19 19 20 23 24 25 25 27 26 27
28 28 27 25 28 29 28 26 27 29 32 35 37 40 43 44 45 47 47 48 48 49 49 49 47 43 37 31 28 23 22 22 21 20 18 19 20 23 24 25 25 25 24 25
27 25 26 28 28 26 25 26 28 31 34 36 40 42 43 44 46 46 47 48 49 49 48 47 43 38 33 28 24 22 22 21 20 19 18 19 21 23 24 24 25 25 23 24
26 27 27 26 25 26 26 28 31 33 36 39 40 42 43 45 46 47 48 48 48 48 48 45 39 35 30 25 23 22 22 20 20 19 19 19 21 22 23 23 24 24 23 22
25 26 25 24 24 26 28 30 33 36 38 40 41 42 43 45 46 47 46 47 48 47 45 40 34 30 26 23 22 22 21 18 19 19 19 19 20 21 22 22 24 24 22 22
25 24 23 24 26 28 31 33 35 38 40 41 41 42 44 45 45 45 45 46 46 43 41 35 30 27 23 21 21 21 20 19 20 19 18 18 20 20 21 22 23 23 23 21
23 23 23 25 28 31 33 35 37 39 40 41 43 43 43 43 44 45 45 45 43 41 36 31 28 25 21 20 20 19 20 20 19 18 18 18 19 19 20 21 22 23 23 22
22 23 26 29 31 34 36 38 39 39 41 42 42 43 43 43 43 43 43 42 40 38 32 28 26 22 20 20 19 19 19 19 18 18 18 18 18 18 19 21 22 23 23 22
24 26 29 32 35 37 39 39 40 41 42 43 42 43 43 42 42 43 41 39 38 34 31 28 24 21 19 19 18 18 18 18 18 18 18 17 17 18 19 21 22 22 23 22
28 31 33 36 38 38 39 40 41 42 42 42 42 43 43 42 42 40 38 37 35 31 28 27 24 21 19 18 18 18 18 17 18 18 17 17 17 17 19 20 21 22 22 22
31 34 37 38 38 39 40 40 41 42 42 42 41 42 42 41 39 37 36 34 33 30 28 27 22 19 18 18 17 18 18 18 18 18 17 17 17 17 19 20 21 21 22 22
35 37 37 38 39 40 41 42 43 42 41 40 41 41 40 38 36 34 34 31 32 29 28 24 20 19 18 18 18 18 19 19 19 18 18 17 18 18 19 20 21 21 22 22
36 37 38 39 40 41 42 42 41 40 39 40 39 38 38 36 33 32 32 32 31 28 26 23 21 20 19 19 19 19 19 20 20 19 19 19 19 20 20 20 21 21 21 22
36 37 39 39 40 41 42 41 39 38 37 36 37 37 36 34 33 32 31 30 28 26 25 23 22 22 21 21 21 21 20 21 21 20 20 20 20 21 21 21 21 22 22 22
37 38 39 40 40 40 40 38 36 36 35 35 35 36 34 32 31 30 29 27 26 25 25 24 23 22 22 23 23 23 23 23 23 22 22 22 21 22 22 22 22 22 23 23
37 38 38 38 38 39 38 37 35 34 33 34 35 33 32 30 28 27 26 25 24 25 25 25 24 24 24 24 24 25 25 24 24 24 23 23 23 23 23 23 23 23 24 24
Wind_Direction
321 320 321 322 320 317 306 299 293 296 292 298 309 303 315 314 313 313 315 316 316 317 317 317 317 317 316 316 315 315 315 310 312 311 307 311 311 313 312 313 313 313 312 311
312 328 329 319 319 315 309 300 299 305 299 309 308 310 310 311 313 314 316 316 315 316 317 318 319 318 318 318 316 316 315 308 311 311 305 310 311 315 314 313 313 313 312 312
309 325 322 329 330 333 328 322 313 305 297 312 310 312 312 311 314 314 315 316 317 317 318 319 320 320 319 319 317 315 314 311 312 309 304 305 307 314 315 314 314 314 313 313
311 320 326 329 324 314 321 315 311 310 313 310 314 314 314 316 316 315 316 317 317 318 319 319 319 319 319 319 318 317 314 312 314 307 308 305 306 312 316 315 316 315 315 315
310 314 311 317 326 329 325 314 310 311 312 311 312 310 310 315 316 316 316 316 318 318 318 318 319 320 320 319 319 318 316 314 314 306 305 304 306 312 314 317 317 317 318 317
308 309 311 319 326 324 317 307 319 314 312 309 310 308 309 314 314 314 315 317 318 319 319 320 320 320 320 320 320 320 320 317 315 309 301 308 311 311 314 318 319 320 320 320
295 301 306 305 315 315 310 313 313 309 312 312 310 309 310 312 314 315 317 319 319 319 319 320 320 319 320 320 321 321 320 320 317 314 302 308 309 312 316 319 321 322 324 325
295 299 302 311 309 307 311 309 308 308 310 310 309 308 311 314 315 317 318 319 319 319 319 319 319 319 319 320 321 322 321 320 319 317 313 312 314 317 320 322 324 326 327 329
286 295 298 308 303 304 305 301 303 304 306 308 308 311 313 314 315 317 318 318 319 319 319 319 319 320 320 321 322 322 323 324 324 323 320 319 320 321 325 326 327 328 331 332
289 293 296 301 302 302 305 305 304 305 306 306 309 313 313 315 316 316 318 318 319 319 319 320 320 320 321 321 322 322 323 322 322 321 321 322 325 326 328 329 330 331 333 335
289 293 296 301 301 301 302 303 303 303 306 309 310 313 314 315 316 317 317 318 319 318 319 320 320 320 321 321 322 322 322 323 323 323 322 323 325 329 331 331 332 333 335 337
288 293 294 298 296 299 302 301 300 304 306 309 312 313 315 316 317 317 318 318 318 319 319 320 320 320 319 319 320 321 321 321 322 321 319 322 327 329 331 332 333 334 336 339
292 295 297 295 298 299 300 299 302 305 306 310 313 315 316 316 317 318 318 318 319 319 320 320 320 319 319 317 317 317 318 319 320 319 320 322 326 330 331 332 333 335 336 339
292 291 293 297 297 296 298 299 301 305 308 311 313 315 316 316 317 318 318 319 319 319 319 320 319 319 319 315 314 314 315 317 320 318 317 319 324 328 330 332 335 337 336 339
288 292 292 293 293 294 298 302 304 307 310 312 314 314 316 317 317 318 318 319 320 319 319 318 317 315 314 312 310 310 312 312 315 315 313 317 322 326 329 332 334 336 337 339
286 290 289 289 294 298 301 304 306 308 311 312 313 314 315 317 317 318 319 320 321 321 320 318 315 314 311 308 308 310 311 310 312 314 312 315 321 325 328 331 334 335 335 336
284 285 288 293 297 301 303 305 307 309 310 311 312 314 315 316 317 318 319 321 321 321 320 317 314 313 309 306 307 307 309 310 311 310 310 314 319 323 327 330 333 335 335 333
284 287 292 295 299 302 304 306 307 308 309 310 312 313 314 315 317 318 320 321 321 321 320 316 314 311 306 305 307 307 308 309 309 309 309 312 317 321 324 328 332 334 335 333
285 290 294 298 301 303 304 305 306 307 308 310 311 311 313 314 316 318 320 321 321 321 321 318 315 308 304 305 306 308 308 307 308 307 308 309 314 319 323 328 330 333 334 333
288 293 298 300 302 303 304 304 305 306 308 309 309 311 312 313 315 317 318 320 320 318 318 318 312 306 302 305 305 308 308 307 307 307 307 308 311 316 322 326 329 331 333 333
292 295 298 300 301 302 302 304 305 306 308 308 309 310 311 311 313 314 315 318 320 319 316 316 311 301 299 300 302 305 308 307 308 307 307 307 309 313 319 325 328 331 333 334
293 297 299 300 300 302 303 304 304 306 307 308 309 310 310 311 311 312 313 313 317 317 315 313 307 300 298 300 300 303 305 307 307 306 305 305 307 311 317 322 326 330 332 333
296 298 299 300 301 302 303 304 305 305 306 308 309 311 311 310 310 310 312 313 315 313 314 310 302 298 297 298 298 302 303 305 306 304 302 302 304 308 312 317 321 325 329 331
296 298 300 301 302 303 304 305 304 304 305 307 309 311 311 311 309 309 310 311 312 312 311 306 299 294 293 294 296 298 302 304 303 301 299 298 300 303 307 312 316 320 324 326
298 300 301 302 303 304 304 304 304 305 307 309 311 312 312 310 307 309 310 311 310 310 310 304 299 293 289 288 290 293 297 303 303 301 298 297 298 301 304 307 310 314 318 321
299 301 302 304 305 305 305 305 304 305 306 309 312 313 313 311 309 308 308 309 310 309 309 306 301 297 291 286 286 289 291 295 299 298 296 295 295 297 300 303 306 309 312 315
300 302 304 305 306 305 305 303 302 303 306 308 310 312 313 313 312 311 309 308 310 312 309 306 301 297 293 289 287 287 288 290 293 295 293 293 294 295 297 299 302 305 308 311